Regional Weather Roundup
Issued by NWS Little Rock, AR

Home | Current Version | Previous Version | Text Only | Print | Product List | Glossary On
Versions: 1 2 3 4 5 6 7 8 9 10 11 12 13 14 15 16 17 18 19 20 21 22 23 24 25 26 27
000
ASUS44 KLZK 171005
RWRLZK

WEATHER ROUNDUP FOR ARKANSAS
NATIONAL WEATHER SERVICE LITTLE ROCK AR
500 AM CDT THU APR 17 2014

NOTE: "FAIR" INDICATES FEW OR NO CLOUDS BELOW 12,000 FEET WITH NO
SIGNIFICANT WEATHER AND/OR OBSTRUCTIONS TO VISIBILITY.

ARZ001-003-010-029-171100-
NORTHWEST ARKANSAS

CITY           SKY/WX    TMP DP  RH WIND       PRES   REMARKS
FAYETTEVILLE   CLEAR     34  32  92 CALM      30.14S
FORT SMITH     CLEAR     43  37  79 E5        30.15R
HARRISON       CLEAR     40  31  70 SE5       30.15R
BENTONVILLE    CLEAR     41  30  65 CALM      30.14S
ROGERS         CLEAR     42  32  67 SE3       30.15R
SILOAM SPGS    CLEAR     45  27  49 E3        30.15R
HIGHFILL       CLEAR     39  31  72 CALM      30.14R
$$

ARZ004-005-016-171100-
NORTH CENTRAL ARKANSAS

CITY           SKY/WX    TMP DP  RH WIND       PRES   REMARKS
BATESVILLE     CLEAR     43  34  70 CALM      30.18R
FLIPPIN        CLEAR     36  25  64 CALM      30.17R
MTN HOME       CLEAR     37  30  75 CALM      30.16R
$$

ARZ040-041-171100-
WEST CENTRAL ARKANSAS

CITY           SKY/WX    TMP DP  RH WIND       PRES   REMARKS
MENA           CLEAR     36  36 100 CALM      30.16R
MOUNT IDA      CLEAR     35  33  92 CALM      30.13R
$$

ARZ009-017-025-026-028-171100-
NORTHEAST ARKANSAS

CITY           SKY/WX    TMP DP  RH WIND       PRES   REMARKS
CORNING        FAIR      39  37  93 SE5       30.20S
JONESBORO      CLEAR     37  35  92 CALM      30.20R
NEWPORT        CLEAR     42  38  86 CALM      30.21R
WALNUT RIDGE   CLEAR     41  36  81 CALM      30.20S
BLYTHEVILLE    CLEAR     43  34  70 SE3       30.22R
$$

ARZ022-023-033-042-044-171100-
CENTRAL ARKANSAS

CITY           SKY/WX    TMP DP  RH WIND       PRES   REMARKS
LITTLE ROCK    PTCLDY    41  36  82 CALM      30.19R
N LITTLE ROCK    N/A     45  39  81 CALM      30.19R
JACKSONVILLE   CLEAR     37  35  94 CALM      30.19R
SEARCY         CLEAR     37  36  96 CALM      30.20R
HOT SPRINGS    CLEAR     41  36  82 CALM      30.17R
RUSSELLVILLE   CLEAR     38  35  89 CALM      30.16S
CLINTON        FAIR      34  34 100 CALM      30.20R FOG
$$

ARZ036-171100-
EAST ARKANSAS

CITY           SKY/WX    TMP DP  RH WIND       PRES   REMARKS
WEST MEMPHIS   CLEAR     42  38  85 SE3       30.19F
$$

ARZ050-053-066-070-073-171100-
SOUTHWEST ARKANSAS

CITY           SKY/WX    TMP DP  RH WIND       PRES   REMARKS
ARKADELPHIA    FAIR      41  39  92 CALM      30.19R
CAMDEN         CLEAR     37  36  93 MISG      30.17S
TEXARKANA      CLEAR     43  38  82 E3        30.14S
EL DORADO      CLEAR     39  37  92 CALM      30.17S
DE QUEEN       CLEAR     38  38 100 CALM      30.14R FOG
$$

ARZ056-057-069-171100-
SOUTHEAST ARKANSAS

CITY           SKY/WX    TMP DP  RH WIND       PRES   REMARKS
PINE BLUFF     CLEAR     41  39  93 CALM      30.19R
STUTTGART      CLEAR     45  37  76 SE9       30.19S
MONTICELLO     CLEAR     39  36  89 CALM      30.18S

$$





USA.gov is the U.S. government's official web portal to all federal, state and local government web resources and services.